FOX-1CLIFF (AO-95) (43770 NORAD) Tracking and Keplerian Element Data

This shows tracking and keplerian element data for the satellite.

Feedback or suggestion? Click here.




ElementValue
Catalog43770
NameFOX-1CLIFF (AO-95)
Epoch Orbit649
Epoch Day16.2000218
Epoch Year2019
RAAN89.9033
Inclination97.7637
Eccentricity0.0015967
Argument of Perigee123.2724
Mean Anonmoly237.0029
Mean Motion14.94657666
Decay Rate3.49E-06
L11 43770U 18099N 19016.20002180 .00000349 00000-0 37416-4 0 9999
L22 43770 97.7637 89.9033 0015967 123.2724 237.0029 14.94657666 6499

Live tracking and technical data element details for FOX-1CLIFF (AO-95) (NORAD 43770). FOX-1CLIFF (AO-95) can be tracked NOW for your location showing map with azimuth and elevation plus other details from your city location.

Track the satellite on the map from your city or location and see movement details for azimuth, elevation, latitude, longitude, range, height, and movement on the map or in text.







IsCatalogInMostPopularTable: catalog: 43770, numindb: 17
Update: records affected: 1



GetName: 43770 FOX-1CLIFF (AO-95)

Hit Count: updated at: Thu, 17 Jan 2019 14:54:51 GMT